This demonstration page uses our WeatherBlox Daily Observations layout. Learn more.

Left ArrowRight Arrow

53.62937, 11.41316

Hourly Observations for April 27, 2015

Temp ( °F °C ) Dew Point ( °F °C ) Humidity (%) Winds ( mph kmh ) Pressure ( in mb ) Visibility ( mi km ) Precip ( " mm )
6:20 am 06:20 Cloudy with Light Rain 45 7 43 6 93 93 NNE 7 11 29.65 1004 6 9 N/A
6:50 am 06:50 Cloudy with Light Rain 45 7 43 6 93 93 NNE 7 11 29.65 1004 5 8 N/A
7:20 am 07:20 Cloudy with Light Rain 45 7 43 6 93 93 NNE 8 13 29.65 1004 4 7 N/A
7:50 am 07:50 Cloudy with Light Rain 45 7 43 6 93 93 NNE 8 13 29.65 1004 30 48 N/A
8:20 am 08:20 Cloudy with Light Rain 45 7 43 6 93 93 N 9 15 29.65 1004 30 48 N/A
8:50 am 08:50 Cloudy with Drizzle 45 7 43 6 93 93 NNE 9 15 29.65 1004 30 48 N/A
9:20 am 09:20 Cloudy with Light Rain 45 7 43 6 93 93 NNE 8 13 29.65 1004 30 48 N/A
9:50 am 09:50 Cloudy with Light Rain 45 7 43 6 93 93 N 8 13 29.65 1004 30 48 N/A
10:20 am 10:20 Cloudy with Light Rain 45 7 43 6 93 93 N 7 11 29.65 1004 30 48 N/A
10:50 am 10:50 Cloudy with Light Rain 45 7 43 6 93 93 N 8 13 29.68 1005 30 48 N/A
11:20 am 11:20 Cloudy with Light Rain 45 7 43 6 93 93 N 7 11 29.68 1005 30 48 N/A
11:50 am 11:50 Cloudy with Light Rain 46 8 43 6 87 87 N 7 11 29.68 1005 30 48 N/A
12:20 pm 12:20 Cloudy with Light Rain 46 8 45 7 93 93 N 6 9 29.68 1005 30 48 N/A
12:50 pm 12:50 Cloudy with Light Rain 46 8 43 6 87 87 N 7 11 29.71 1006 30 48 N/A
1:20 pm 13:20 Cloudy with Drizzle 46 8 45 7 93 93 N 7 11 29.71 1006 30 48 N/A
1:50 pm 13:50 Cloudy 46 8 43 6 87 87 N 7 11 29.71 1006 30 48 N/A
2:20 pm 14:20 Mostly Cloudy 48 9 43 6 82 82 N 9 15 29.71 1006 30 48 N/A
2:50 pm 14:50 Cloudy 48 9 43 6 82 82 N 7 11 29.74 1007 30 48 N/A
3:20 pm 15:20 Cloudy 48 9 41 5 76 76 N 8 13 29.74 1007 30 48 N/A
3:50 pm 15:50 Cloudy 48 9 41 5 76 76 N 9 15 29.74 1007 30 48 N/A
4:20 pm 16:20 Mostly Cloudy 50 10 39 4 67 67 N 10 17 29.74 1007 30 48 N/A
4:50 pm 16:50 Mostly Cloudy 50 10 41 5 71 71 NNW 8 13 29.74 1007 30 48 N/A
5:20 pm 17:20 Mostly Cloudy 48 9 39 4 71 71 NNW 8 13 29.74 1007 30 48 N/A
5:50 pm 17:50 Cloudy 50 10 37 3 62 62 NNW 7 11 29.74 1007 30 48 N/A
6:20 pm 18:20 Mostly Sunny 50 10 37 3 62 62 N 8 13 29.74 1007 7 11 N/A
6:50 pm 18:50 Mostly Sunny 48 9 32 0 54 54 N 7 11 29.74 1007 7 11 N/A

Powered by AerisWeather